Location: Caltech
(34.1382°N, 118.1253°W)
Time: 11:44:27
(UTC-08:00)

Daily predictions for brighter satellites

Satellite Brightness Start Highest point End
(mag) Time Altitude Azimuth Time Altitude Azimuth Time Altitude Azimuth
CENTAUR R/B 3.2 17:57:43 10° SSE 18:02:39 30° ESE 18:08:04 10° NE
NOAA 12 4.2 17:59:57 10° SSE 18:05:06 56° ENE 18:10:18 10° N
Cosmos 2227 Rocket 2.2 18:00:06 10° SSW 18:05:43 75° ESE 18:11:22 10° NNE
H-2A R/B 3.7 18:04:09 10° SE 18:07:30 27° ENE 18:10:50 10° NNE
MOS 1-B Rocket 4.1 18:01:08 10° SSE 18:07:49 68° ENE 18:13:41 10° N
Aureole 2 4.3 18:04:34 10° NNW 18:08:14 70° ENE 18:11:24 10° SSE
Cosmos 2221 Rocket 3.9 18:04:04 10° N 18:08:29 73° W 18:12:52 10° S
Cosmos 2237 Rocket 2.5 18:05:12 10° N 18:10:34 44° ENE 18:15:55 10° SE
SL-16 R/B 3.5 18:08:48 10° NNE 18:12:42 19° ENE 18:16:36 10° E
FENGYUN 3A 3.7 18:10:14 10° SSE 18:15:36 85° E 18:21:03 10° NNW
MONITOR-E 4.1 18:13:48 10° SSE 18:16:49 90° S 18:19:51 10° N
Cosmos 2297 Rocket 2.2 18:14:22 10° SSW 18:20:00 85° ESE 18:25:42 10° NNE
Iridium 4 Rocket 4.4 18:16:17 10° NNE 18:20:02 22° E 18:23:31 10° SE
Cosmos 1624 Rocket 3.9 18:17:12 10° NNW 18:22:26 78° ENE 18:27:36 10° SSE
COSMO-SKYMED 1 3.8 18:18:57 10° N 18:23:05 45° WNW 18:27:13 10° SSW
NOSS 3-2 (A) 4.5 18:23:22 10° SW 18:28:57 45° NW 18:35:05 10° NNE
ALOS 2.9 18:24:43 10° S 18:29:19 61° W 18:33:57 10° NNW
ATLAS 3B R/B 4.4 18:23:01 10° WSW 18:29:22 32° NW 18:35:32 10° NNE
Lacrosse 5 1.9 18:24:54 10° NNW 18:29:53 57° NE 18:34:51 10° SE
Cosmos 1812 3.2 18:26:36 10° N 18:30:14 38° E 18:33:51 10° SSE
ERS-2 2.5 18:30:45 10° SE 18:34:13 41° ENE 18:37:42 10° N
Abrixas rocket 3.1 18:32:54 10° WNW 18:35:57 46° SW 18:39:00 10° SSE
ORS 1 (USA 231) 3.8 18:38:33 10° WNW 18:41:03 77° NNE 18:41:54 35° ESE
Cosmos 44 4.3 18:37:32 10° N 18:41:56 29° NE 18:44:21 20° E
Meteor 1-25 Rocket 4.2 18:36:42 10° S 18:42:08 61° E 18:47:36 10° NNE
Cosmos 2333 Rocket 3.2 18:38:35 10° NNW 18:44:03 51° WSW 18:49:28 10° S
Cosmos 1437 Rocket 3.8 18:41:17 10° SSE 18:44:35 25° E 18:45:36 23° ENE
Cosmos 1633 2.4 18:41:21 10° S 18:44:50 60° E 18:48:21 10° NNE
Cosmos 2082 4.2 18:41:11 10° SSW 18:46:43 63° WNW 18:52:19 10° NNE
Thor Agena Rocket 3.7 18:42:00 10° NNE 18:46:53 46° E 18:51:42 10° S
Gbstr 26 Del rocket 4.2 18:45:51 10° S 18:48:17 18° SE 18:48:17 18° SE
Cosmos 2034 Rocket 4.4 18:43:57 10° N 18:49:51 39° ENE 18:55:42 10° SE
Cosmos 1674 Rocket 3.4 18:46:29 10° N 18:50:51 79° E 18:55:08 10° S
USA 32 4.2 18:46:02 10° SSE 18:51:00 46° E 18:56:00 10° NNE
Envisat 3.6 18:47:35 10° SE 18:52:07 34° ENE 18:56:41 10° N
SL-8 R/B 4.2 18:48:23 10° WSW 18:53:05 55° NW 18:56:35 17° NE
Cosmos 1908 Rocket 3.5 18:48:58 10° S 18:53:24 69° E 18:57:51 10° NNE
HJ-1C 3.5 18:51:24 10° SSE 18:54:43 51° ENE 18:58:03 10° N
Cosmos 1269 Rocket 4.4 18:50:08 10° S 18:55:02 40° E 18:59:30 12° NE
SeaSat 1 2.8 18:58:01 23° ESE 19:00:38 44° ENE 19:05:18 10° N
ARGOS Delta rocket 3.7 19:01:38 10° NNE 19:06:27 61° E 19:10:59 10° S
Resurs 01 Rocket 3.3 19:10:56 19° NNE 19:10:56 19° NNE 19:12:29 10° NNE
Shenzhou-11 Module 2.4 19:05:56 10° WNW 19:08:53 54° SSW 19:09:08 51° S
OAO 2 Rocket 3.2 19:06:59 10° WSW 19:11:53 70° SSE 19:13:18 45° E
Cosmos 921 Rocket 4.3 19:07:57 10° N 19:10:36 26° NE 19:10:36 26° NE
USA 215 3.8 19:06:36 10° NE 19:12:57 56° NW 19:19:18 10° WSW
Okean 3 3.8 19:10:20 10° NNW 19:14:28 65° W 19:18:35 10° S
OAO 1 4.4 19:13:02 10° W 19:18:35 90° SE 19:20:15 47° E
SJ-6B 2.6 19:15:23 12° S 19:18:51 83° WSW 19:22:39 10° NNW
Centaur D-1A AC-32 4.2 19:16:44 10° WSW 19:21:37 53° S 19:29:15 28° ESE
Cosmos 1975 Rocket 4.3 19:20:10 10° N 19:22:26 28° NNE 19:22:26 28° NNE
Tiangong 2 3.1 19:28:18 10° NW 19:29:54 25° NW 19:29:54 25° NW
Okean 1 3.9 19:32:28 10° N 19:35:34 51° NNW 19:35:34 51° NNW
Tsikada Rocket 3.9 19:30:53 10° S 19:37:16 88° E 19:43:44 10° N
Cosmos 1452 Rocket 4.2 19:36:16 10° NNW 19:41:21 52° WSW 19:46:25 10° S
USA 267 4.1 19:43:26 32° NNE 19:43:26 32° NNE 19:49:03 10° NNW
Cosmos 44 Rocket 3.4 19:39:02 10° NNW 19:43:34 69° N 19:43:34 69° N
CENTAUR R/B 3.7 19:47:27 10° WSW 19:52:59 39° NW 19:59:08 10° NNE
SL-16 R/B 2.8 19:51:38 10° NNW 19:57:08 54° WSW 19:59:32 32° SSW
CZ-3 Stage 3 4.3 20:01:39 10° WSW 20:02:27 15° WSW 20:02:27 15° WSW
Lacrosse 5 4.3 20:09:05 10° WNW 20:12:25 18° WSW 20:14:45 13° SSW
CZ-3C R/B 3.7 20:21:34 10° SW 21:12:58 - E 20:25:49 37° S
